Simultaneous Nadir Overpasses (SNOs) Predictions

Prediction of SNOs between FY3D and NOAA-19 Satellite Orbit:

Table of predicted SNOs for the next 14.0 days since TLE Epoch: 8/5/2023
Index Date (FY3D) Time (FY3D) Lat,Lon (FY3D) SZA (FY3D ) Date (NOAA-19) Time (NOAA-19) Lat,Lon (NOAA-19) SZA (NOAA-19 ) Distance(km) Time Diff (sec)
1 08/07/2023 08:53:31 -76.49,-141.19 119.84 08/07/2023 08:52:17 -76.48,-141.11 119.84 2.32 74
2 08/07/2023 09:44:18 76.49, 26.11 60.17 08/07/2023 09:43:16 76.46, 26.08 60.16 2.77 62
3 08/07/2023 10:35:02 -76.47,-166.50 119.85 08/07/2023 10:34:16 -76.48,-166.61 119.82 3.10 46
4 08/07/2023 11:25:50 76.51, 0.63 60.22 08/07/2023 11:25:14 76.50, 0.75 60.21 3.21 36
5 08/07/2023 12:16:34 -76.49, 168.02 119.80 08/07/2023 12:16:14 -76.52, 168.06 119.77 3.08 20
6 08/07/2023 13:07:21 76.49, -24.68 60.22 08/07/2023 13:07:13 76.50, -24.76 60.23 2.25 8
7 08/07/2023 13:58:06 -76.52, 142.55 119.75 08/07/2023 13:58:13 -76.52, 142.56 119.75 0.28 7
8 08/07/2023 14:48:53 76.52, -50.16 60.27 08/07/2023 14:49:11 76.54, -50.09 60.28 2.86 18
9 08/07/2023 15:39:38 -76.54, 117.07 119.70 08/07/2023 15:40:12 -76.51, 117.05 119.73 3.23 34
10 08/07/2023 16:30:25 76.55, -75.63 60.32 08/07/2023 16:31:10 76.54, -75.60 60.30 1.23 45
11 08/07/2023 17:21:09 -76.52, 91.76 119.70 08/07/2023 17:22:10 -76.56, 91.72 119.68 3.57 61
12 08/07/2023 18:11:57 76.57,-101.11 60.37 08/07/2023 18:13:09 76.53,-101.11 60.32 4.04 72



Historial Predications of SNOs between FY3D and NOAA-19
